Previsão horária em Julianow

Hoje, 22 Junho, Terça-feira

Tempo Temperatura Precipitação Vento Pressão Humidade
00:00 +20°C° 0 mm 3 m/s 741 mmHg 90%
01:00 +20°C° 0 mm 3 m/s 741 mmHg 92%
02:00 +19°C° 0 mm 3 m/s 741 mmHg 93%
03:00 +19°C° 0 mm 3 m/s 741 mmHg 93%
04:00 +19°C° 0 mm 3 m/s 741 mmHg 94%
05:00 +21°C° 0 mm 3 m/s 742 mmHg 87%
06:00 +22°C° 0 mm 3 m/s 742 mmHg 80%
07:00 +25°C° 0 mm 4 m/s 742 mmHg 73%
08:00 +27°C° 0 mm 4 m/s 742 mmHg 69%
09:00 +28°C° 0 mm 4 m/s 742 mmHg 64%
10:00 +29°C° 0 mm 4 m/s 742 mmHg 59%
11:00 +30°C° 0 mm 4 m/s 742 mmHg 56%
12:00 +32°C° 0 mm 4 m/s 743 mmHg 53%
13:00 +33°C° 0 mm 4 m/s 743 mmHg 51%
14:00 +32°C° 0 mm 4 m/s 743 mmHg 52%
15:00 +32°C° 0 mm 4 m/s 743 mmHg 54%
16:00 +32°C° 0 mm 4 m/s 743 mmHg 55%
17:00 +28°C° 0.6 mm 3 m/s 743 mmHg 64%
18:00 +25°C° 0.6 mm 3 m/s 743 mmHg 73%
19:00 +23°C° 0.6 mm 2 m/s 743 mmHg 82%
20:00 +21°C° 1 mm 2 m/s 743 mmHg 85%
21:00 +21°C° 1 mm 1 m/s 744 mmHg 87%
22:00 +21°C° 1 mm 1 m/s 744 mmHg 89%
23:00 +21°C° 0 mm 1 m/s 744 mmHg 88%

Amanhã, 23 Junho, Quarta-feira

Tempo Temperatura Precipitação Vento Pressão Humidade
00:00 +21°C° 0 mm 1 m/s 744 mmHg 88%
01:00 +21°C° 0 mm 1 m/s 744 mmHg 87%
02:00 +21°C° 0.1 mm 1 m/s 744 mmHg 88%
03:00 +21°C° 0.1 mm 1 m/s 744 mmHg 88%
04:00 +21°C° 0.1 mm 1 m/s 744 mmHg 88%
05:00 +22°C° 0.1 mm 1 m/s 745 mmHg 85%
06:00 +22°C° 0.1 mm 1 m/s 745 mmHg 83%
07:00 +21°C° 0.1 mm 0 m/s 746 mmHg 80%
08:00 +25°C° 0.1 mm 1 m/s 746 mmHg 75%
09:00 +26°C° 0.1 mm 1 m/s 746 mmHg 71%
10:00 +27°C° 0.1 mm 1 m/s 746 mmHg 66%
11:00 +28°C° 0 mm 1 m/s 746 mmHg 64%
12:00 +29°C° 0 mm 1 m/s 746 mmHg 61%
13:00 +30°C° 0 mm 1 m/s 746 mmHg 58%
14:00 +29°C° 0.8 mm 1 m/s 746 mmHg 61%
15:00 +29°C° 0.8 mm 2 m/s 746 mmHg 63%
16:00 +29°C° 0.8 mm 2 m/s 746 mmHg 66%
17:00 +27°C° 0.6 mm 2 m/s 746 mmHg 71%
18:00 +26°C° 0.6 mm 1 m/s 746 mmHg 76%
19:00 +24°C° 0.6 mm 1 m/s 747 mmHg 81%
20:00 +23°C° 0.7 mm 1 m/s 747 mmHg 84%
21:00 +21°C° 0.7 mm 2 m/s 747 mmHg 87%
22:00 +20°C° 0.7 mm 2 m/s 747 mmHg 90%
23:00 +20°C° 0 mm 2 m/s 747 mmHg 89%

Depois de amanhã, 24 Junho, Quinta-feira

Tempo Temperatura Precipitação Vento Pressão Humidade
00:00 +21°C° 0 mm 1 m/s 747 mmHg 89%
01:00 +21°C° 0 mm 1 m/s 747 mmHg 89%
02:00 +20°C° 0 mm 1 m/s 747 mmHg 90%
03:00 +20°C° 0 mm 1 m/s 747 mmHg 90%
04:00 +20°C° 0 mm 1 m/s 747 mmHg 91%
05:00 +21°C° 0 mm 1 m/s 747 mmHg 87%
06:00 +23°C° 0 mm 1 m/s 747 mmHg 82%
07:00 +24°C° 0 mm 1 m/s 747 mmHg 78%
08:00 +26°C° 0 mm 1 m/s 747 mmHg 73%
09:00 +25°C° 0 mm 0 m/s 747 mmHg 68%
10:00 +27°C° 0 mm 0 m/s 747 mmHg 63%
11:00 +28°C° 0 mm 0 m/s 747 mmHg 60%
12:00 +28°C° 0 mm 0 m/s 747 mmHg 58%
13:00 +29°C° 0 mm 0 m/s 746 mmHg 55%
14:00 +31°C° 0.1 mm 1 m/s 746 mmHg 55%
15:00 +31°C° 0.1 mm 1 m/s 746 mmHg 56%
16:00 +31°C° 0.1 mm 1 m/s 746 mmHg 56%
17:00 +30°C° 0.2 mm 2 m/s 746 mmHg 62%
18:00 +28°C° 0.2 mm 2 m/s 745 mmHg 69%
19:00 +27°C° 0.2 mm 2 m/s 745 mmHg 75%
20:00 +26°C° 0.2 mm 2 m/s 745 mmHg 79%
21:00 +25°C° 0.2 mm 2 m/s 745 mmHg 83%
22:00 +24°C° 0.2 mm 3 m/s 745 mmHg 86%
23:00 +22°C° 0.3 mm 3 m/s 744 mmHg 89%

25 Junho, Sexta-feira

Tempo Temperatura Precipitação Vento Pressão Humidade
00:00 +22°C° 0.3 mm 3 m/s 744 mmHg 91%
01:00 +22°C° 0.3 mm 3 m/s 744 mmHg 93%
02:00 +21°C° 0.5 mm 3 m/s 743 mmHg 93%
03:00 +21°C° 0.5 mm 4 m/s 743 mmHg 93%
04:00 +21°C° 0.5 mm 4 m/s 743 mmHg 94%
05:00 +22°C° 0.3 mm 4 m/s 743 mmHg 89%
06:00 +25°C° 0.3 mm 4 m/s 743 mmHg 85%
07:00 +26°C° 0.3 mm 5 m/s 743 mmHg 81%
08:00 +27°C° 0 mm 4 m/s 743 mmHg 75%
09:00 +28°C° 0 mm 4 m/s 743 mmHg 70%
10:00 +29°C° 0 mm 4 m/s 743 mmHg 64%
11:00 +30°C° 0.1 mm 4 m/s 743 mmHg 63%
12:00 +30°C° 0.1 mm 5 m/s 743 mmHg 61%
13:00 +30°C° 0.1 mm 5 m/s 744 mmHg 60%
14:00 +29°C° 0 mm 5 m/s 744 mmHg 61%
15:00 +28°C° 0 mm 5 m/s 744 mmHg 63%
16:00 +28°C° 0 mm 6 m/s 744 mmHg 64%
17:00 +26°C° 0 mm 6 m/s 744 mmHg 69%
18:00 +23°C° 0 mm 6 m/s 745 mmHg 74%
19:00 +21°C° 0 mm 6 m/s 745 mmHg 79%
20:00 +20°C° 0 mm 5 m/s 745 mmHg 81%
21:00 +19°C° 0 mm 4 m/s 746 mmHg 83%
22:00 +17°C° 0 mm 3 m/s 746 mmHg 85%
23:00 +17°C° 0 mm 3 m/s 746 mmHg 87%

26 Junho, Sábado

Tempo Temperatura Precipitação Vento Pressão Humidade
00:00 +16°C° 0 mm 3 m/s 746 mmHg 89%
01:00 +16°C° 0 mm 3 m/s 746 mmHg 92%
02:00 +14°C° 0 mm 3 m/s 746 mmHg 93%
03:00 +15°C° 0 mm 2 m/s 746 mmHg 94%
04:00 +15°C° 0 mm 2 m/s 746 mmHg 95%
05:00 +16°C° 0 mm 2 m/s 747 mmHg 88%
06:00 +18°C° 0 mm 3 m/s 747 mmHg 81%
07:00 +19°C° 0 mm 3 m/s 747 mmHg 74%
08:00 +20°C° 0 mm 3 m/s 747 mmHg 69%
09:00 +22°C° 0 mm 4 m/s 747 mmHg 64%
10:00 +23°C° 0 mm 4 m/s 747 mmHg 60%
11:00 +25°C° 0 mm 4 m/s 747 mmHg 58%
12:00 +25°C° 0 mm 4 m/s 747 mmHg 55%
13:00 +26°C° 0 mm 4 m/s 747 mmHg 53%
14:00 +25°C° 0 mm 3 m/s 747 mmHg 55%
15:00 +25°C° 0 mm 3 m/s 747 mmHg 58%
16:00 +25°C° 0 mm 3 m/s 747 mmHg 60%
17:00 +24°C° 0 mm 2 m/s 747 mmHg 65%
18:00 +23°C° 0 mm 2 m/s 747 mmHg 70%
19:00 +21°C° 0 mm 2 m/s 747 mmHg 74%
20:00 +20°C° 0 mm 2 m/s 747 mmHg 76%
21:00 +19°C° 0 mm 2 m/s 747 mmHg 78%
22:00 +19°C° 0 mm 1 m/s 747 mmHg 80%
23:00 +18°C° 0 mm 1 m/s 747 mmHg 81%

27 Junho, Domingo

Tempo Temperatura Precipitação Vento Pressão Humidade
00:00 +18°C° 0 mm 1 m/s 747 mmHg 83%
01:00 +16°C° 0 mm 1 m/s 747 mmHg 84%
02:00 +16°C° 0 mm 1 m/s 747 mmHg 85%
03:00 +16°C° 0 mm 1 m/s 747 mmHg 85%
04:00 +16°C° 0 mm 1 m/s 747 mmHg 86%
05:00 +18°C° 0 mm 1 m/s 747 mmHg 83%
06:00 +19°C° 0 mm 1 m/s 747 mmHg 81%
07:00 +20°C° 0 mm 1 m/s 748 mmHg 78%
08:00 +20°C° 0.1 mm 1 m/s 748 mmHg 80%
09:00 +19°C° 0.1 mm 2 m/s 748 mmHg 82%
10:00 +19°C° 0.1 mm 2 m/s 748 mmHg 85%
11:00 +20°C° 0.1 mm 1 m/s 748 mmHg 83%
12:00 +20°C° 0.1 mm 1 m/s 748 mmHg 82%
13:00 +20°C° 0.1 mm 1 m/s 748 mmHg 81%
14:00 +21°C° 0 mm 1 m/s 748 mmHg 77%
15:00 +22°C° 0 mm 1 m/s 748 mmHg 72%
16:00 +23°C° 0 mm 1 m/s 748 mmHg 68%
17:00 +22°C° 0 mm 1 m/s 748 mmHg 72%
18:00 +21°C° 0 mm 1 m/s 747 mmHg 75%
19:00 +20°C° 0 mm 2 m/s 747 mmHg 79%
20:00 +19°C° 0 mm 2 m/s 747 mmHg 82%
21:00 +18°C° 0 mm 2 m/s 748 mmHg 84%
22:00 +17°C° 0 mm 2 m/s 748 mmHg 87%
23:00 +17°C° 0 mm 2 m/s 747 mmHg 89%
Mostrar mais

Necessitamos do seu Consentimento

A Meteoprog e os seus Fornecedores de Serviços podem armazenar e aceder a dados pessoais como cookies, identificadores do dispositivo ou outras tecnologias semelhantes existentes no seu dispositivo e processar estes dados para personalizar conteúdos e anúncios, assim como funcionalidades nas redes sociais e análise de tráfego.

  • Armazenar e/ou aceder a informações no seu dispositivo

    Os cookies, identificadores do dispositivo ou outras informações podem ser armazenados ou acedidos no seu dispositivo, para os fins acima indicados.

  • Anúncios e conteúdos personalizados, medição de anúncios e conteúdos, dados sobre o público-alvo e desenvolvimento de produtos

    Os anúncios e os conteúdos podem ser personalizados com base num perfil. Podem ser adicionados dados adicionais para uma maior personalização dos anúncios e dos conteúdos. A eficácia dos anúncios e dos conteúdos pode ser medida. Podem ser obtidas informações sobre o público que visualizou os anúncios e os conteúdos. Estes dados podem ser usados para desenvolver ou melhorar sistemas, softwares ou a experiência do utilizador.

Ao clicar em "Eu concordo”, permitirá o uso de cookies, identificadores do dispositivo e web beacons mencionados ou outras tecnologias semelhantes. As configurações do navegador do seu dispositivo podem ser alteradas.

Para certos fins, podem ser invocados interesses legítimos ao invés de consentimento. Pode ler mais informação sobre este assunto na nossa Política de Privacidade e Cookies.